Simultaneous Nadir Overpasses (SNOs) Predictions

Prediction of SNOs between AQUA and METOP-B Satellite Orbit:

Table of predicted SNOs for the next 14.0 days since TLE Epoch: 10/18/2019
Index Date (AQUA) Time (AQUA) Lat,Lon (AQUA) SZA (AQUA ) Date (METOP-B) Time (METOP-B) Lat,Lon (METOP-B) SZA (METOP-B ) Distance(km) Time Diff (sec)
1 10/18/2019 23:20:29 -73.88, 3.97 96.42 10/18/2019 23:21:08 -73.87, 3.95 96.43 1.85 39
2 10/21/2019 18:05:15 73.79, -97.03 84.49 10/21/2019 18:04:50 73.82, -97.07 84.52 3.18 25
3 10/21/2019 18:54:43 -73.88, 70.40 95.40 10/21/2019 18:55:31 -73.88, 70.39 95.41 0.72 48
4 10/24/2019 12:49:54 -73.33, 162.76 95.01 10/24/2019 12:48:46 -73.26, 160.72 95.05 65.68 68
5 10/24/2019 13:39:30 73.81, -30.63 85.50 10/24/2019 13:39:14 73.83, -30.64 85.52 2.52 16
6 10/24/2019 14:28:58 -73.89, 136.82 94.41 10/24/2019 14:29:55 -73.89, 136.83 94.41 0.55 57
7 10/27/2019 08:24:16 -73.71,-131.61 93.66 10/27/2019 08:23:03 -73.62,-132.05 93.73 16.66 73
8 10/27/2019 09:13:45 73.83, 35.76 86.48 10/27/2019 09:13:38 73.84, 35.80 86.50 1.78 7
9 10/27/2019 10:03:13 -73.91,-156.78 93.43 10/27/2019 10:04:19 -73.90,-156.73 93.43 1.71 66
10 10/30/2019 03:58:31 -73.78, -65.33 92.64 10/30/2019 03:57:23 -73.78, -65.27 92.64 2.03 68
11 10/30/2019 04:47:59 73.86, 102.14 87.45 10/30/2019 04:48:01 73.85, 102.23 87.45 2.79 2




NCC Satellite Simultaneous Nadir Overpasses (SNOs) Prediction Service
